Powrót do katalogu

LEMUR 2 ARIANNA

AktywnyNaukaSSO
NORAD 62699·PAYLOAD·🇺🇸 United States

Wystrzelony Jan 14, 2025 z Vandenberg Space Force Base

Loading…

Następne Przeloty (najbliższe 24 godziny)

TLE

ŚwieżeSource: Space-Track

Epoka: Sep 14, 2026, 03:59 UTC

1 62699U 25009CU  26257.16620650  .00005612  00000-0  41525-3 0  9990
2 62699  97.6839 337.8623 0002887 148.9829 211.1568 15.03563449 90928

Śledź LEMUR 2 ARIANNA w czasie rzeczywistym z AllMySat

Download on the App Store